owner,sensor,date,latitude,longitude,vertical_datum,sea_water_practical_salinity,qcFlag 
SCCF RECON,ioos:station:SCCF:53:1,2016-08-03T18:00:00Z,26.6493,-81.8810,2.54,0.19,1111122 
SCCF RECON,ioos:station:SCCF:53:1,2016-08-03T19:00:00Z,26.6493,-81.8810,2.591,0.19,1111122 
SCCF RECON,ioos:station:SCCF:53:1,2016-08-03T20:00:00Z,26.6493,-81.8810,2.63,0.19,1111122 
SCCF RECON,ioos:station:SCCF:53:1,2016-08-03T21:00:00Z,26.6493,-81.8810,2.62,0.19,1111122 
SCCF RECON,ioos:station:SCCF:53:1,2016-08-03T22:00:00Z,26.6493,-81.8810,2.56,0.19,1111122 
SCCF RECON,ioos:station:SCCF:53:1,2016-08-03T23:00:00Z,26.6493,-81.8810,2.492,0.19,1111122 
SCCF RECON,ioos:station:SCCF:53:1,2016-08-04T00:00:00Z,26.6493,-81.8810,2.43,0.19,1111122 
SCCF RECON,ioos:station:SCCF:53:1,2016-08-04T01:00:00Z,26.6493,-81.8810,2.37,0.19,1111122 
SCCF RECON,ioos:station:SCCF:53:1,2016-08-04T02:00:00Z,26.6493,-81.8810,2.31,0.19,1111122 
SCCF RECON,ioos:station:SCCF:53:1,2016-08-04T03:00:00Z,26.6493,-81.8810,2.25,0.19,1111122 
SCCF RECON,ioos:station:SCCF:53:1,2016-08-04T04:00:00Z,26.6493,-81.8810,2.2,0.19,1111122 
SCCF RECON,ioos:station:SCCF:53:1,2016-08-04T05:00:00Z,26.6493,-81.8810,2.19,0.19,1111122 
SCCF RECON,ioos:station:SCCF:53:1,2016-08-04T06:00:00Z,26.6493,-81.8810,2.23,0.19,1111122 
SCCF RECON,ioos:station:SCCF:53:1,2016-08-04T07:00:00Z,26.6493,-81.8810,2.29,0.19,1111122 
SCCF RECON,ioos:station:SCCF:53:1,2016-08-04T08:00:00Z,26.6493,-81.8810,2.34,0.19,1111122 
SCCF RECON,ioos:station:SCCF:53:1,2016-08-04T09:00:00Z,26.6493,-81.8810,2.4,0.19,1111122 
SCCF RECON,ioos:station:SCCF:53:1,2016-08-04T10:00:00Z,26.6493,-81.8810,2.42,0.19,1111122 
SCCF RECON,ioos:station:SCCF:53:1,2016-08-04T11:00:00Z,26.6493,-81.8810,2.401,0.19,1111122 
SCCF RECON,ioos:station:SCCF:53:1,2016-08-04T12:00:00Z,26.6493,-81.8810,2.364,0.19,1111122 
SCCF RECON,ioos:station:SCCF:53:1,2016-08-04T13:00:00Z,26.6493,-81.8810,2.322,0.19,1111122 
SCCF RECON,ioos:station:SCCF:53:1,2016-08-04T14:00:00Z,26.6493,-81.8810,2.28,0.18,1111122 
SCCF RECON,ioos:station:SCCF:53:1,2016-08-04T15:00:00Z,26.6493,-81.8810,2.249,0.18,1111122 
SCCF RECON,ioos:station:SCCF:53:1,2016-08-04T16:00:00Z,26.6493,-81.8810,2.274,0.19,1111122 
SCCF RECON,ioos:station:SCCF:53:1,2016-08-04T17:00:00Z,26.6493,-81.8810,2.365,0.19,1111122 
SCCF RECON,ioos:station:SCCF:53:1,2016-08-04T18:00:00Z,26.6493,-81.8810,2.43,0.19,1111122 
SCCF RECON,ioos:station:SCCF:53:1,2016-08-04T19:00:00Z,26.6493,-81.8810,2.5,0.19,1111122 
SCCF RECON,ioos:station:SCCF:53:1,2016-08-04T20:00:00Z,26.6493,-81.8810,2.567,0.19,1111122 
SCCF RECON,ioos:station:SCCF:53:1,2016-08-04T21:00:00Z,26.6493,-81.8810,2.613,0.19,1111122 
SCCF RECON,ioos:station:SCCF:53:1,2016-08-04T22:00:00Z,26.6493,-81.8810,2.61,0.19,1111122 
SCCF RECON,ioos:station:SCCF:53:1,2016-08-04T23:00:00Z,26.6493,-81.8810,2.55,0.19,1111122 
SCCF RECON,ioos:station:SCCF:53:1,2016-08-05T00:00:00Z,26.6493,-81.8810,2.479,0.19,1111122 
SCCF RECON,ioos:station:SCCF:53:1,2016-08-05T01:00:00Z,26.6493,-81.8810,2.41,0.19,1111122 
SCCF RECON,ioos:station:SCCF:53:1,2016-08-05T02:00:00Z,26.6493,-81.8810,2.351,0.19,1111122 
SCCF RECON,ioos:station:SCCF:53:1,2016-08-05T03:00:00Z,26.6493,-81.8810,2.3,0.19,1111122 
SCCF RECON,ioos:station:SCCF:53:1,2016-08-05T04:00:00Z,26.6493,-81.8810,2.24,0.19,1111122 
SCCF RECON,ioos:station:SCCF:53:1,2016-08-05T05:00:00Z,26.6493,-81.8810,2.21,0.19,1111122 
SCCF RECON,ioos:station:SCCF:53:1,2016-08-05T06:00:00Z,26.6493,-81.8810,2.24,0.19,1111122 
SCCF RECON,ioos:station:SCCF:53:1,2016-08-05T07:00:00Z,26.6493,-81.8810,2.3,0.19,1111122 
SCCF RECON,ioos:station:SCCF:53:1,2016-08-05T08:00:00Z,26.6493,-81.8810,2.36,0.19,1111122 
SCCF RECON,ioos:station:SCCF:53:1,2016-08-05T09:00:00Z,26.6493,-81.8810,2.42,0.19,1111122 
SCCF RECON,ioos:station:SCCF:53:1,2016-08-05T10:00:00Z,26.6493,-81.8810,2.47,0.19,1111122 
SCCF RECON,ioos:station:SCCF:53:1,2016-08-05T11:00:00Z,26.6493,-81.8810,2.47,0.19,1111122 
SCCF RECON,ioos:station:SCCF:53:1,2016-08-05T12:00:00Z,26.6493,-81.8810,2.425,0.19,1111122 
SCCF RECON,ioos:station:SCCF:53:1,2016-08-05T13:00:00Z,26.6493,-81.8810,2.374,0.19,1111122 
SCCF RECON,ioos:station:SCCF:53:1,2016-08-05T14:00:00Z,26.6493,-81.8810,2.337,0.19,1111122 
SCCF RECON,ioos:station:SCCF:53:1,2016-08-05T15:00:00Z,26.6493,-81.8810,2.3,0.19,1111122 
SCCF RECON,ioos:station:SCCF:53:1,2016-08-05T16:00:00Z,26.6493,-81.8810,2.271,0.19,1111122 
SCCF RECON,ioos:station:SCCF:53:1,2016-08-05T17:00:00Z,26.6493,-81.8810,2.319,0.19,1111122 
SCCF RECON,ioos:station:SCCF:53:1,2016-08-05T18:00:00Z,26.6493,-81.8810,2.397,0.19,1111122 
SCCF RECON,ioos:station:SCCF:53:1,2016-08-05T19:00:00Z,26.6493,-81.8810,2.45,0.19,1111122 
SCCF RECON,ioos:station:SCCF:53:1,2016-08-05T20:00:00Z,26.6493,-81.8810,2.512,0.19,1111122 
SCCF RECON,ioos:station:SCCF:53:1,2016-08-05T21:00:00Z,26.6493,-81.8810,2.566,0.19,1111122 
SCCF RECON,ioos:station:SCCF:53:1,2016-08-05T22:00:00Z,26.6493,-81.8810,2.599,0.19,1111122 
SCCF RECON,ioos:station:SCCF:53:1,2016-08-05T23:00:00Z,26.6493,-81.8810,2.56,0.19,1111122 
SCCF RECON,ioos:station:SCCF:53:1,2016-08-06T00:00:00Z,26.6493,-81.8810,2.491,0.19,1111122 
SCCF RECON,ioos:station:SCCF:53:1,2016-08-06T01:00:00Z,26.6493,-81.8810,2.436,0.19,1111122 
SCCF RECON,ioos:station:SCCF:53:1,2016-08-06T02:00:00Z,26.6493,-81.8810,2.371,0.19,1111122 
SCCF RECON,ioos:station:SCCF:53:1,2016-08-06T03:00:00Z,26.6493,-81.8810,2.315,0.19,1111122 
SCCF RECON,ioos:station:SCCF:53:1,2016-08-06T04:00:00Z,26.6493,-81.8810,2.26,0.2,1111122 
SCCF RECON,ioos:station:SCCF:53:1,2016-08-06T05:00:00Z,26.6493,-81.8810,2.21,0.19,1111122 
SCCF RECON,ioos:station:SCCF:53:1,2016-08-06T06:00:00Z,26.6493,-81.8810,2.21,0.2,1111122 
SCCF RECON,ioos:station:SCCF:53:1,2016-08-06T07:00:00Z,26.6493,-81.8810,2.25,0.2,1111122 
SCCF RECON,ioos:station:SCCF:53:1,2016-08-06T08:00:00Z,26.6493,-81.8810,2.3,0.2,1111122 
SCCF RECON,ioos:station:SCCF:53:1,2016-08-06T09:00:00Z,26.6493,-81.8810,2.36,0.2,1111122 
SCCF RECON,ioos:station:SCCF:53:1,2016-08-06T10:00:00Z,26.6493,-81.8810,2.41,0.19,1111122 
SCCF RECON,ioos:station:SCCF:53:1,2016-08-06T11:00:00Z,26.6493,-81.8810,2.412,0.19,1111122 
SCCF RECON,ioos:station:SCCF:53:1,2016-08-06T12:00:00Z,26.6493,-81.8810,2.39,0.2,1111122 
SCCF RECON,ioos:station:SCCF:53:1,2016-08-06T13:00:00Z,26.6493,-81.8810,2.35,0.2,1111122 
SCCF RECON,ioos:station:SCCF:53:1,2016-08-06T14:00:00Z,26.6493,-81.8810,2.309,0.2,1111122 
SCCF RECON,ioos:station:SCCF:53:1,2016-08-06T15:00:00Z,26.6493,-81.8810,2.264,0.2,1111122 
SCCF RECON,ioos:station:SCCF:53:1,2016-08-06T16:00:00Z,26.6493,-81.8810,2.222,0.2,1111122 
SCCF RECON,ioos:station:SCCF:53:1,2016-08-06T17:00:00Z,26.6493,-81.8810,2.216,0.2,1111122 
SCCF RECON,ioos:station:SCCF:53:1,2016-08-06T18:00:00Z,26.6493,-81.8810,2.26,0.2,1111122 
SCCF RECON,ioos:station:SCCF:53:1,2016-08-06T19:00:00Z,26.6493,-81.8810,2.329,0.2,1111122 
SCCF RECON,ioos:station:SCCF:53:1,2016-08-06T20:00:00Z,26.6493,-81.8810,2.394,0.2,1111122 
SCCF RECON,ioos:station:SCCF:53:1,2016-08-06T21:00:00Z,26.6493,-81.8810,2.466,0.2,1111122 
SCCF RECON,ioos:station:SCCF:53:1,2016-08-06T22:00:00Z,26.6493,-81.8810,2.517,0.2,1111122 
SCCF RECON,ioos:station:SCCF:53:1,2016-08-06T23:00:00Z,26.6493,-81.8810,2.53,0.2,1111122 
SCCF RECON,ioos:station:SCCF:53:1,2016-08-07T00:00:00Z,26.6493,-81.8810,2.498,0.19,1111122 
SCCF RECON,ioos:station:SCCF:53:1,2016-08-07T01:00:00Z,26.6493,-81.8810,2.43,0.2,1111122 
SCCF RECON,ioos:station:SCCF:53:1,2016-08-07T02:00:00Z,26.6493,-81.8810,2.38,0.2,1111122 
SCCF RECON,ioos:station:SCCF:53:1,2016-08-07T03:00:00Z,26.6493,-81.8810,2.329,0.2,1111122 
SCCF RECON,ioos:station:SCCF:53:1,2016-08-07T04:00:00Z,26.6493,-81.8810,2.27,0.2,1111122 
SCCF RECON,ioos:station:SCCF:53:1,2016-08-07T05:00:00Z,26.6493,-81.8810,2.23,0.2,1111122 
SCCF RECON,ioos:station:SCCF:53:1,2016-08-07T06:00:00Z,26.6493,-81.8810,2.2,0.2,1111122 
SCCF RECON,ioos:station:SCCF:53:1,2016-08-07T07:00:00Z,26.6493,-81.8810,2.24,0.2,1111122 
SCCF RECON,ioos:station:SCCF:53:1,2016-08-07T08:00:00Z,26.6493,-81.8810,2.301,0.2,1111122 
SCCF RECON,ioos:station:SCCF:53:1,2016-08-07T09:00:00Z,26.6493,-81.8810,2.35,0.2,1111122 
SCCF RECON,ioos:station:SCCF:53:1,2016-08-07T10:00:00Z,26.6493,-81.8810,2.42,0.2,1111122 
SCCF RECON,ioos:station:SCCF:53:1,2016-08-07T11:00:00Z,26.6493,-81.8810,2.48,0.2,1111122 
SCCF RECON,ioos:station:SCCF:53:1,2016-08-07T12:00:00Z,26.6493,-81.8810,2.502,0.2,1111122 
SCCF RECON,ioos:station:SCCF:53:1,2016-08-07T13:00:00Z,26.6493,-81.8810,2.47,0.2,1111122 
SCCF RECON,ioos:station:SCCF:53:1,2016-08-07T14:00:00Z,26.6493,-81.8810,2.41,0.2,1111122 
SCCF RECON,ioos:station:SCCF:53:1,2016-08-07T15:00:00Z,26.6493,-81.8810,2.36,0.2,1111122 
SCCF RECON,ioos:station:SCCF:53:1,2016-08-07T16:00:00Z,26.6493,-81.8810,2.311,0.2,1111122 
SCCF RECON,ioos:station:SCCF:53:1,2016-08-07T17:00:00Z,26.6493,-81.8810,2.271,0.2,1111122 
SCCF RECON,ioos:station:SCCF:53:1,2016-08-07T18:00:00Z,26.6493,-81.8810,2.252,0.2,1111122 
SCCF RECON,ioos:station:SCCF:53:1,2016-08-07T19:00:00Z,26.6493,-81.8810,2.286,0.2,1111122 
SCCF RECON,ioos:station:SCCF:53:1,2016-08-07T20:00:00Z,26.6493,-81.8810,2.36,0.2,1111122 
SCCF RECON,ioos:station:SCCF:53:1,2016-08-07T21:00:00Z,26.6493,-81.8810,2.41,0.2,1111122 
SCCF RECON,ioos:station:SCCF:53:1,2016-08-07T22:00:00Z,26.6493,-81.8810,2.486,0.2,1111122 
SCCF RECON,ioos:station:SCCF:53:1,2016-08-07T23:00:00Z,26.6493,-81.8810,2.5,0.2,1111122 
SCCF RECON,ioos:station:SCCF:53:1,2016-08-08T00:00:00Z,26.6493,-81.8810,2.48,0.2,1111122 
SCCF RECON,ioos:station:SCCF:53:1,2016-08-08T01:00:00Z,26.6493,-81.8810,2.44,0.2,1111122 
SCCF RECON,ioos:station:SCCF:53:1,2016-08-08T02:00:00Z,26.6493,-81.8810,2.39,0.2,1111122 
SCCF RECON,ioos:station:SCCF:53:1,2016-08-08T03:00:00Z,26.6493,-81.8810,2.33,0.2,1111122 
SCCF RECON,ioos:station:SCCF:53:1,2016-08-08T04:00:00Z,26.6493,-81.8810,2.27,0.2,1111122 
SCCF RECON,ioos:station:SCCF:53:1,2016-08-08T05:00:00Z,26.6493,-81.8810,2.23,0.2,1111122 
SCCF RECON,ioos:station:SCCF:53:1,2016-08-08T06:00:00Z,26.6493,-81.8810,2.19,0.2,1111122 
SCCF RECON,ioos:station:SCCF:53:1,2016-08-08T07:00:00Z,26.6493,-81.8810,2.198,0.2,1111122 
SCCF RECON,ioos:station:SCCF:53:1,2016-08-08T08:00:00Z,26.6493,-81.8810,2.25,0.2,1111122 
SCCF RECON,ioos:station:SCCF:53:1,2016-08-08T09:00:00Z,26.6493,-81.8810,2.31,0.2,1111122 
SCCF RECON,ioos:station:SCCF:53:1,2016-08-08T10:00:00Z,26.6493,-81.8810,2.37,0.2,1111122 
SCCF RECON,ioos:station:SCCF:53:1,2016-08-08T11:00:00Z,26.6493,-81.8810,2.43,0.2,1111122 
SCCF RECON,ioos:station:SCCF:53:1,2016-08-08T12:00:00Z,26.6493,-81.8810,2.46,0.2,1111122 
SCCF RECON,ioos:station:SCCF:53:1,2016-08-08T13:00:00Z,26.6493,-81.8810,2.471,0.2,1111122 
SCCF RECON,ioos:station:SCCF:53:1,2016-08-08T14:00:00Z,26.6493,-81.8810,2.462,0.2,1111122 
SCCF RECON,ioos:station:SCCF:53:1,2016-08-08T15:00:00Z,26.6493,-81.8810,2.39,0.2,1111122 
SCCF RECON,ioos:station:SCCF:53:1,2016-08-08T16:00:00Z,26.6493,-81.8810,2.343,0.2,1111122 
SCCF RECON,ioos:station:SCCF:53:1,2016-08-08T17:00:00Z,26.6493,-81.8810,2.3,0.2,1111122 
SCCF RECON,ioos:station:SCCF:53:1,2016-08-08T18:00:00Z,26.6493,-81.8810,2.26,0.2,1111122 
SCCF RECON,ioos:station:SCCF:53:1,2016-08-08T19:00:00Z,26.6493,-81.8810,2.22,0.2,1111122 
SCCF RECON,ioos:station:SCCF:53:1,2016-08-08T20:00:00Z,26.6493,-81.8810,2.238,0.2,1111122 
SCCF RECON,ioos:station:SCCF:53:1,2016-08-08T21:00:00Z,26.6493,-81.8810,2.282,0.2,1111122 
SCCF RECON,ioos:station:SCCF:53:1,2016-08-08T22:00:00Z,26.6493,-81.8810,2.33,0.2,1111122 
SCCF RECON,ioos:station:SCCF:53:1,2016-08-08T23:00:00Z,26.6493,-81.8810,2.36,0.2,1111122 
SCCF RECON,ioos:station:SCCF:53:1,2016-08-09T00:00:00Z,26.6493,-81.8810,2.39,0.21,1111122 
SCCF RECON,ioos:station:SCCF:53:1,2016-08-09T01:00:00Z,26.6493,-81.8810,2.38,0.2,1111122 
SCCF RECON,ioos:station:SCCF:53:1,2016-08-09T02:00:00Z,26.6493,-81.8810,2.34,0.2,1111122 
SCCF RECON,ioos:station:SCCF:53:1,2016-08-09T03:00:00Z,26.6493,-81.8810,2.3,0.2,1111122 
SCCF RECON,ioos:station:SCCF:53:1,2016-08-09T04:00:00Z,26.6493,-81.8810,2.256,0.2,1111122 
SCCF RECON,ioos:station:SCCF:53:1,2016-08-09T05:00:00Z,26.6493,-81.8810,2.21,0.21,1111122 
SCCF RECON,ioos:station:SCCF:53:1,2016-08-09T06:00:00Z,26.6493,-81.8810,2.18,0.21,1111122 
SCCF RECON,ioos:station:SCCF:53:1,2016-08-09T07:00:00Z,26.6493,-81.8810,2.17,0.21,1111122 
SCCF RECON,ioos:station:SCCF:53:1,2016-08-09T08:00:00Z,26.6493,-81.8810,2.21,0.21,1111122 
SCCF RECON,ioos:station:SCCF:53:1,2016-08-09T09:00:00Z,26.6493,-81.8810,2.27,0.21,1111122 
SCCF RECON,ioos:station:SCCF:53:1,2016-08-09T10:00:00Z,26.6493,-81.8810,2.34,0.21,1111122 
SCCF RECON,ioos:station:SCCF:53:1,2016-08-09T11:00:00Z,26.6493,-81.8810,2.41,0.2,1111122 
SCCF RECON,ioos:station:SCCF:53:1,2016-08-09T12:00:00Z,26.6493,-81.8810,2.478,0.2,1111122 
SCCF RECON,ioos:station:SCCF:53:1,2016-08-09T13:00:00Z,26.6493,-81.8810,2.51,0.2,1111122 
SCCF RECON,ioos:station:SCCF:53:1,2016-08-09T14:00:00Z,26.6493,-81.8810,2.514,0.2,1111122 
SCCF RECON,ioos:station:SCCF:53:1,2016-08-09T15:00:00Z,26.6493,-81.8810,2.47,0.2,1111122 
SCCF RECON,ioos:station:SCCF:53:1,2016-08-09T16:00:00Z,26.6493,-81.8810,2.42,0.21,1111122 
SCCF RECON,ioos:station:SCCF:53:1,2016-08-09T17:00:00Z,26.6493,-81.8810,2.367,0.21,1111122 
SCCF RECON,ioos:station:SCCF:53:1,2016-08-09T18:00:00Z,26.6493,-81.8810,2.321,0.21,1111122 
SCCF RECON,ioos:station:SCCF:53:1,2016-08-09T19:00:00Z,26.6493,-81.8810,2.28,0.21,1111122 
SCCF RECON,ioos:station:SCCF:53:1,2016-08-09T20:00:00Z,26.6493,-81.8810,2.255,0.21,1111122 
SCCF RECON,ioos:station:SCCF:53:1,2016-08-09T21:00:00Z,26.6493,-81.8810,2.277,0.21,1111122 
SCCF RECON,ioos:station:SCCF:53:1,2016-08-09T22:00:00Z,26.6493,-81.8810,2.324,0.21,1111122 
SCCF RECON,ioos:station:SCCF:53:1,2016-08-09T23:00:00Z,26.6493,-81.8810,2.373,0.21,1111122 
SCCF RECON,ioos:station:SCCF:53:1,2016-08-10T00:00:00Z,26.6493,-81.8810,2.437,0.21,1111122 
SCCF RECON,ioos:station:SCCF:53:1,2016-08-10T01:00:00Z,26.6493,-81.8810,2.44,0.21,1111122 
SCCF RECON,ioos:station:SCCF:53:1,2016-08-10T02:00:00Z,26.6493,-81.8810,2.41,0.21,1111122 
SCCF RECON,ioos:station:SCCF:53:1,2016-08-10T03:00:00Z,26.6493,-81.8810,2.36,0.21,1111122 
SCCF RECON,ioos:station:SCCF:53:1,2016-08-10T04:00:00Z,26.6493,-81.8810,2.31,0.21,1111122 
SCCF RECON,ioos:station:SCCF:53:1,2016-08-10T05:00:00Z,26.6493,-81.8810,2.27,0.21,1111122 
SCCF RECON,ioos:station:SCCF:53:1,2016-08-10T06:00:00Z,26.6493,-81.8810,2.23,0.21,1111122 
SCCF RECON,ioos:station:SCCF:53:1,2016-08-10T07:00:00Z,26.6493,-81.8810,2.21,0.21,1111122 
SCCF RECON,ioos:station:SCCF:53:1,2016-08-10T08:00:00Z,26.6493,-81.8810,2.25,0.21,1111122 
SCCF RECON,ioos:station:SCCF:53:1,2016-08-10T09:00:00Z,26.6493,-81.8810,2.29,0.21,1111122 
SCCF RECON,ioos:station:SCCF:53:1,2016-08-10T10:00:00Z,26.6493,-81.8810,2.251,0.21,1111122 
SCCF RECON,ioos:station:SCCF:53:1,2016-08-10T11:00:00Z,26.6493,-81.8810,2.36,0.21,1111122 
SCCF RECON,ioos:station:SCCF:53:1,2016-08-10T12:00:00Z,26.6493,-81.8810,2.43,0.21,1111122 
SCCF RECON,ioos:station:SCCF:53:1,2016-08-10T13:00:00Z,26.6493,-81.8810,2.47,0.21,1111122 
SCCF RECON,ioos:station:SCCF:53:1,2016-08-10T14:00:00Z,26.6493,-81.8810,2.51,0.21,1111122 
SCCF RECON,ioos:station:SCCF:53:1,2016-08-10T15:00:00Z,26.6493,-81.8810,2.48,0.21,1111122 
SCCF RECON,ioos:station:SCCF:53:1,2016-08-10T16:00:00Z,26.6493,-81.8810,2.428,0.21,1111122 
SCCF RECON,ioos:station:SCCF:53:1,2016-08-10T17:00:00Z,26.6493,-81.8810,2.373,0.21,1111122 
SCCF RECON,ioos:station:SCCF:53:1,2016-08-10T18:00:00Z,26.6493,-81.8810,2.313,0.21,1111122 
SCCF RECON,ioos:station:SCCF:53:1,2016-08-10T19:00:00Z,26.6493,-81.8810,2.26,0.21,1111122 
SCCF RECON,ioos:station:SCCF:53:1,2016-08-10T20:00:00Z,26.6493,-81.8810,2.211,0.21,1111122 
SCCF RECON,ioos:station:SCCF:53:1,2016-08-10T21:00:00Z,26.6493,-81.8810,2.181,0.21,1111122 
SCCF RECON,ioos:station:SCCF:53:1,2016-08-10T22:00:00Z,26.6493,-81.8810,2.18,0.21,1111122 
SCCF RECON,ioos:station:SCCF:53:1,2016-08-10T23:00:00Z,26.6493,-81.8810,2.2,0.21,1111122 
SCCF RECON,ioos:station:SCCF:53:1,2016-08-11T00:00:00Z,26.6493,-81.8810,2.252,0.21,1111122 
SCCF RECON,ioos:station:SCCF:53:1,2016-08-11T01:00:00Z,26.6493,-81.8810,2.32,0.21,1111122 
SCCF RECON,ioos:station:SCCF:53:1,2016-08-11T02:00:00Z,26.6493,-81.8810,2.36,0.21,1111122 
SCCF RECON,ioos:station:SCCF:53:1,2016-08-11T03:00:00Z,26.6493,-81.8810,2.34,0.21,1111122 
SCCF RECON,ioos:station:SCCF:53:1,2016-08-11T04:00:00Z,26.6493,-81.8810,2.28,0.21,1111122 
SCCF RECON,ioos:station:SCCF:53:1,2016-08-11T05:00:00Z,26.6493,-81.8810,2.24,0.21,1111122 
SCCF RECON,ioos:station:SCCF:53:1,2016-08-11T06:00:00Z,26.6493,-81.8810,2.2,0.21,1111122 
SCCF RECON,ioos:station:SCCF:53:1,2016-08-11T07:00:00Z,26.6493,-81.8810,2.16,0.21,1111122 
SCCF RECON,ioos:station:SCCF:53:1,2016-08-11T08:00:00Z,26.6493,-81.8810,2.15,0.21,1111122 
SCCF RECON,ioos:station:SCCF:53:1,2016-08-11T09:00:00Z,26.6493,-81.8810,2.16,0.21,1111122 
SCCF RECON,ioos:station:SCCF:53:1,2016-08-11T10:00:00Z,26.6493,-81.8810,2.18,0.21,1111122 
SCCF RECON,ioos:station:SCCF:53:1,2016-08-11T11:00:00Z,26.6493,-81.8810,2.24,0.21,1111122 
SCCF RECON,ioos:station:SCCF:53:1,2016-08-11T12:00:00Z,26.6493,-81.8810,2.29,0.21,1111122 
SCCF RECON,ioos:station:SCCF:53:1,2016-08-11T13:00:00Z,26.6493,-81.8810,2.33,0.21,1111122 
SCCF RECON,ioos:station:SCCF:53:1,2016-08-11T14:00:00Z,26.6493,-81.8810,2.359,0.21,1111122 
SCCF RECON,ioos:station:SCCF:53:1,2016-08-11T15:00:00Z,26.6493,-81.8810,2.352,0.21,1111122 
SCCF RECON,ioos:station:SCCF:53:1,2016-08-11T16:00:00Z,26.6493,-81.8810,2.311,0.21,1111122 
SCCF RECON,ioos:station:SCCF:53:1,2016-08-11T17:00:00Z,26.6493,-81.8810,2.257,0.21,1111122 
SCCF RECON,ioos:station:SCCF:53:1,2016-08-11T18:00:00Z,26.6493,-81.8810,2.2,0.21,1111122 
SCCF RECON,ioos:station:SCCF:53:1,2016-08-11T19:00:00Z,26.6493,-81.8810,2.15,0.21,1111122 
SCCF RECON,ioos:station:SCCF:53:1,2016-08-11T20:00:00Z,26.6493,-81.8810,2.116,0.2,1111122 
SCCF RECON,ioos:station:SCCF:53:1,2016-08-11T21:00:00Z,26.6493,-81.8810,2.081,0.2,1111122 
SCCF RECON,ioos:station:SCCF:53:1,2016-08-11T22:00:00Z,26.6493,-81.8810,2.062,0.2,1111122 
SCCF RECON,ioos:station:SCCF:53:1,2016-08-11T23:00:00Z,26.6493,-81.8810,2.064,0.2,1111122 
SCCF RECON,ioos:station:SCCF:53:1,2016-08-12T00:00:00Z,26.6493,-81.8810,2.11,0.2,1111122 
SCCF RECON,ioos:station:SCCF:53:1,2016-08-12T01:00:00Z,26.6493,-81.8810,2.17,0.21,1111122 
SCCF RECON,ioos:station:SCCF:53:1,2016-08-12T02:00:00Z,26.6493,-81.8810,2.23,0.21,1111122 
SCCF RECON,ioos:station:SCCF:53:1,2016-08-12T03:00:00Z,26.6493,-81.8810,2.29,0.21,1111122 
SCCF RECON,ioos:station:SCCF:53:1,2016-08-12T04:00:00Z,26.6493,-81.8810,2.326,0.21,1111122 
SCCF RECON,ioos:station:SCCF:53:1,2016-08-12T05:00:00Z,26.6493,-81.8810,2.321,0.21,1111122 
SCCF RECON,ioos:station:SCCF:53:1,2016-08-12T06:00:00Z,26.6493,-81.8810,2.29,0.21,1111122 
SCCF RECON,ioos:station:SCCF:53:1,2016-08-12T07:00:00Z,26.6493,-81.8810,2.24,0.21,1111122 
SCCF RECON,ioos:station:SCCF:53:1,2016-08-12T08:00:00Z,26.6493,-81.8810,2.19,0.2,1111122 
SCCF RECON,ioos:station:SCCF:53:1,2016-08-12T09:00:00Z,26.6493,-81.8810,2.17,0.21,1111122 
SCCF RECON,ioos:station:SCCF:53:1,2016-08-12T10:00:00Z,26.6493,-81.8810,2.17,0.21,1111122 
SCCF RECON,ioos:station:SCCF:53:1,2016-08-12T11:00:00Z,26.6493,-81.8810,2.2,0.21,1111122 
SCCF RECON,ioos:station:SCCF:53:1,2016-08-12T12:00:00Z,26.6493,-81.8810,2.26,0.21,1111122 
SCCF RECON,ioos:station:SCCF:53:1,2016-08-12T13:00:00Z,26.6493,-81.8810,2.32,0.21,1111122 
SCCF RECON,ioos:station:SCCF:53:1,2016-08-12T14:00:00Z,26.6493,-81.8810,2.366,0.21,1111122 
SCCF RECON,ioos:station:SCCF:53:1,2016-08-12T15:00:00Z,26.6493,-81.8810,2.38,0.21,1111122 
SCCF RECON,ioos:station:SCCF:53:1,2016-08-12T16:00:00Z,26.6493,-81.8810,2.35,0.21,1111122 
SCCF RECON,ioos:station:SCCF:53:1,2016-08-12T17:00:00Z,26.6493,-81.8810,2.324,0.21,1111122 
SCCF RECON,ioos:station:SCCF:53:1,2016-08-12T18:00:00Z,26.6493,-81.8810,2.272,0.21,1111122 
SCCF RECON,ioos:station:SCCF:53:1,2016-08-12T19:00:00Z,26.6493,-81.8810,2.21,0.21,1111122 
SCCF RECON,ioos:station:SCCF:53:1,2016-08-12T20:00:00Z,26.6493,-81.8810,2.185,0.21,1111122 
SCCF RECON,ioos:station:SCCF:53:1,2016-08-12T21:00:00Z,26.6493,-81.8810,2.151,0.2,1111122 
SCCF RECON,ioos:station:SCCF:53:1,2016-08-12T22:00:00Z,26.6493,-81.8810,2.1,0.2,1111122 
SCCF RECON,ioos:station:SCCF:53:1,2016-08-12T23:00:00Z,26.6493,-81.8810,2.08,0.2,1111122 
SCCF RECON,ioos:station:SCCF:53:1,2016-08-13T00:00:00Z,26.6493,-81.8810,2.07,0.2,1111122 
SCCF RECON,ioos:station:SCCF:53:1,2016-08-13T01:00:00Z,26.6493,-81.8810,2.1,0.2,1111122 
SCCF RECON,ioos:station:SCCF:53:1,2016-08-13T02:00:00Z,26.6493,-81.8810,2.151,0.2,1111122 
SCCF RECON,ioos:station:SCCF:53:1,2016-08-13T03:00:00Z,26.6493,-81.8810,2.2,0.2,1111122 
SCCF RECON,ioos:station:SCCF:53:1,2016-08-13T04:00:00Z,26.6493,-81.8810,2.24,0.2,1111122 
SCCF RECON,ioos:station:SCCF:53:1,2016-08-13T05:00:00Z,26.6493,-81.8810,2.28,0.2,1111122 
SCCF RECON,ioos:station:SCCF:53:1,2016-08-13T06:00:00Z,26.6493,-81.8810,2.3,0.21,1111122 
SCCF RECON,ioos:station:SCCF:53:1,2016-08-13T07:00:00Z,26.6493,-81.8810,2.29,0.2,1111122 
SCCF RECON,ioos:station:SCCF:53:1,2016-08-13T08:00:00Z,26.6493,-81.8810,2.25,0.2,1111122 
SCCF RECON,ioos:station:SCCF:53:1,2016-08-13T09:00:00Z,26.6493,-81.8810,2.22,0.2,1111122 
SCCF RECON,ioos:station:SCCF:53:1,2016-08-13T10:00:00Z,26.6493,-81.8810,2.199,0.2,1111122 
SCCF RECON,ioos:station:SCCF:53:1,2016-08-13T11:00:00Z,26.6493,-81.8810,2.2,0.2,1111122 
SCCF RECON,ioos:station:SCCF:53:1,2016-08-13T12:00:00Z,26.6493,-81.8810,2.25,0.2,1111122 
SCCF RECON,ioos:station:SCCF:53:1,2016-08-13T13:00:00Z,26.6493,-81.8810,2.32,0.2,1111122 
SCCF RECON,ioos:station:SCCF:53:1,2016-08-13T14:00:00Z,26.6493,-81.8810,2.38,0.2,1111122 
SCCF RECON,ioos:station:SCCF:53:1,2016-08-13T15:00:00Z,26.6493,-81.8810,2.43,0.21,1111122 
SCCF RECON,ioos:station:SCCF:53:1,2016-08-13T16:00:00Z,26.6493,-81.8810,2.45,0.21,1111122 
SCCF RECON,ioos:station:SCCF:53:1,2016-08-13T17:00:00Z,26.6493,-81.8810,2.449,0.21,1111122 
SCCF RECON,ioos:station:SCCF:53:1,2016-08-13T18:00:00Z,26.6493,-81.8810,2.417,0.2,1111122 
SCCF RECON,ioos:station:SCCF:53:1,2016-08-13T19:00:00Z,26.6493,-81.8810,2.345,0.2,1111122 
SCCF RECON,ioos:station:SCCF:53:1,2016-08-13T20:00:00Z,26.6493,-81.8810,2.291,0.2,1111122 
SCCF RECON,ioos:station:SCCF:53:1,2016-08-13T21:00:00Z,26.6493,-81.8810,2.235,0.2,1111122 
SCCF RECON,ioos:station:SCCF:53:1,2016-08-13T22:00:00Z,26.6493,-81.8810,2.18,0.2,1111122 
SCCF RECON,ioos:station:SCCF:53:1,2016-08-13T23:00:00Z,26.6493,-81.8810,2.136,0.2,1111122 
SCCF RECON,ioos:station:SCCF:53:1,2016-08-14T00:00:00Z,26.6493,-81.8810,2.103,0.2,1111122 
SCCF RECON,ioos:station:SCCF:53:1,2016-08-14T01:00:00Z,26.6493,-81.8810,2.091,0.2,1111122 
SCCF RECON,ioos:station:SCCF:53:1,2016-08-14T02:00:00Z,26.6493,-81.8810,2.13,0.2,1111122 
SCCF RECON,ioos:station:SCCF:53:1,2016-08-14T03:00:00Z,26.6493,-81.8810,2.19,0.2,1111122 
SCCF RECON,ioos:station:SCCF:53:1,2016-08-14T04:00:00Z,26.6493,-81.8810,2.23,0.2,1111122 
SCCF RECON,ioos:station:SCCF:53:1,2016-08-14T05:00:00Z,26.6493,-81.8810,2.28,0.2,1111122 
SCCF RECON,ioos:station:SCCF:53:1,2016-08-14T06:00:00Z,26.6493,-81.8810,2.31,0.2,1111122 
SCCF RECON,ioos:station:SCCF:53:1,2016-08-14T07:00:00Z,26.6493,-81.8810,2.31,0.2,1111122 
SCCF RECON,ioos:station:SCCF:53:1,2016-08-14T08:00:00Z,26.6493,-81.8810,2.29,0.2,1111122 
SCCF RECON,ioos:station:SCCF:53:1,2016-08-14T09:00:00Z,26.6493,-81.8810,2.26,0.2,1111122 
SCCF RECON,ioos:station:SCCF:53:1,2016-08-14T10:00:00Z,26.6493,-81.8810,2.24,0.2,1111122 
SCCF RECON,ioos:station:SCCF:53:1,2016-08-14T11:00:00Z,26.6493,-81.8810,2.29,0.2,1111122 
SCCF RECON,ioos:station:SCCF:53:1,2016-08-14T12:00:00Z,26.6493,-81.8810,2.24,0.2,1111122 
SCCF RECON,ioos:station:SCCF:53:1,2016-08-14T13:00:00Z,26.6493,-81.8810,2.269,0.2,1111122 
SCCF RECON,ioos:station:SCCF:53:1,2016-08-14T14:00:00Z,26.6493,-81.8810,2.32,0.2,1111122 
SCCF RECON,ioos:station:SCCF:53:1,2016-08-14T15:00:00Z,26.6493,-81.8810,2.387,0.2,1111122 
SCCF RECON,ioos:station:SCCF:53:1,2016-08-14T16:00:00Z,26.6493,-81.8810,2.438,0.2,1111122 